Location: Armstrong Village
(14.3346°N, 120.9854°E)
Time: 17:32:08
(UTC+00:00)

Delta 2 Rocket - Visible Passes

Search period start: 11 April 2026 00:00
Search period end: 21 April 2026 00:00
Orbit: 890 x 1676 km, 26.4° (Epoch: 11 April)

Date Brightness Start Highest point End Pass type
(mag) Time Alt. Az. Time Alt. Az. Time Alt. Az.
11 Apr 6.9 17:32:26 14° ENE 17:32:26 14° ENE 17:33:21 10° ENE visible
11 Apr 5.0 19:23:34 54° NNW 19:24:09 55° NNW 19:32:07 10° ENE visible
11 Apr 5.6 21:16:41 10° WNW 21:24:16 34° N 21:30:42 10° ENE visible
12 Apr 6.8 17:37:14 17° ENE 17:37:14 17° ENE 17:38:53 10° ENE visible
12 Apr 5.2 19:28:23 46° NW 19:29:43 48° NNW 19:37:36 10° ENE visible
12 Apr 5.7 21:22:26 10° WNW 21:30:00 33° N 21:36:26 10° ENE visible
13 Apr 6.6 17:42:02 21° ENE 17:42:02 21° ENE 17:44:22 10° ENE visible
13 Apr 5.4 19:33:10 38° NW 19:35:19 44° NNW 19:43:07 10° ENE visible
14 Apr 6.5 17:46:47 25° ENE 17:46:47 25° ENE 17:49:49 10° ENE visible
14 Apr 5.5 19:37:55 33° NW 19:40:58 40° N 19:48:42 10° ENE visible
15 Apr 6.3 17:51:32 28° NE 17:51:32 28° NE 17:55:16 10° ENE visible
15 Apr 5.7 19:42:40 28° NW 19:46:39 38° N 19:54:20 10° ENE visible
16 Apr 6.2 17:56:16 31° NE 17:56:16 31° NE 18:00:43 10° ENE visible
16 Apr 5.7 19:47:24 24° NW 19:52:21 38° N 20:00:03 10° ENE visible
17 Apr 6.6 11:52:27 10° S 11:53:59 12° SSE 11:53:59 12° SSE visible
17 Apr 6.1 18:01:01 34° NE 18:01:01 34° NE 18:06:13 10° ENE visible
17 Apr 5.8 19:52:09 20° NW 19:58:05 38° N 20:05:49 10° ENE visible
18 Apr 6.3 11:56:23 10° S 11:59:26 16° S 11:59:26 16° S visible
18 Apr 6.0 18:05:46 36° NNE 18:05:46 36° NNE 18:11:45 10° ENE visible
18 Apr 5.8 19:56:54 17° NW 20:03:49 40° N 20:11:38 10° ENE visible
19 Apr 6.1 12:00:48 10° SSW 12:05:00 21° S 12:05:00 21° S visible
19 Apr 5.9 18:10:32 38° NNE 18:10:32 38° NNE 18:17:22 10° ENE visible
19 Apr 5.7 20:01:41 15° WNW 20:09:31 42° N 20:17:28 10° ENE visible
20 Apr 5.8 12:05:29 10° SSW 12:10:40 28° S 12:10:40 28° S visible
20 Apr 5.9 18:15:22 40° NNE 18:15:22 40° NNE 18:23:02 10° ENE visible
20 Apr 5.6 20:06:30 13° WNW 20:15:13 47° N 20:23:19 10° E visible
